Weather History for EINN - July, 2013

Change the Weather History Date:

Sunday, July 14, 2013

  Actual Average Record
Temperature  
Mean Temperature 63 °F -  
Max Temperature 70 °F 67 °F 77 °F (2006)
Min Temperature 56 °F 54 °F 44 °F (2001)
Degree Days  
Heating Degree Days 2    
Growing Degree Days 13 (Base 50)    
Moisture  
Dew Point 59 °F    
Average Humidity 85    
Maximum Humidity 100    
Minimum Humidity 63    
Precipitation  
Precipitation 0.00 in 0.09 in - ()
Sea Level Pressure  
Sea Level Pressure 30.31 in    
Wind  
Wind Speed 7 mph ()    
Max Wind Speed 16 mph    
Max Gust Speed -    
Visibility 7.6 miles    
Events Fog , Rain    
Averages and records for this station are not official NWS values.
T = Trace of Precipitation, MM = Missing Value Source: Averaged Metar Reports

Daily Weather History Graph

Daily Weather History Graph

Search for Another Location

Airport or City:

Trip Planner

Search our weather history database for the weather conditions in past years. The results will help you decide how hot, cold, wet, or windy it might be!

Date:

Astronomy

Jul. 14, 2013 Rise Set
Actual Time 5:28 AM IST 9:53 PM IST
Civil Twilight 4:41 AM IST 10:40 PM IST
Nautical Twilight 3:29 AM IST 11:51 PM IST
Astronomical Twilight 2:13 AM IST 1:09 AM IST
Moon 12:29 PM IST (7/14) 11:57 PM IST (7/14)
Length of Visible Light 17h 58m
Length of Day
16h 24m
Waxing Crescent, 33% of the Moon is Illuminated
Jul 14
Waxing Crescent
Jul 16
First Quarter
Jul 22
Full
Jul 29
Last Quarter
Aug 6
New

Hourly Weather History & Observations

Time (IST) Temp. Dew Point Humidity Pressure Visibility Wind Dir Wind Speed Gust Speed Precip Events Conditions
12:00 AM 63 °F 60 °F 85% 30.35 in 12 mi NW 4.5 mph - -   Scattered Clouds
12:00 AM 62.6 °F 59.0 °F 88% 30.33 in - NW 3.5 mph - N/A   Clear
12:30 AM 62.6 °F 59.0 °F 88% 30.33 in 6.2 mi NW 6.9 mph - N/A   Partly Cloudy
1:00 AM 61 °F 59 °F 92% 30.34 in 12 mi NW 8.9 mph - -   Scattered Clouds
1:00 AM 60.8 °F 59.0 °F 94% 30.33 in 6.2 mi NW 8.1 mph - N/A   Partly Cloudy
1:30 AM 60.8 °F 59.0 °F 94% 30.33 in 6.2 mi NW 6.9 mph - N/A   Partly Cloudy
2:00 AM 60 °F 58 °F 91% 30.34 in 12 mi NW 6.7 mph - -  
2:00 AM 59.0 °F 59.0 °F 100% 30.33 in - NW 6.9 mph - N/A   Clear
2:30 AM 59.0 °F 57.2 °F 94% 30.33 in - NW 5.8 mph - N/A   Clear
3:00 AM 58 °F 57 °F 96% 30.33 in 12 mi NW 6.7 mph - -  
3:00 AM 59.0 °F 57.2 °F 94% 30.33 in - NW 6.9 mph - N/A   Clear
3:30 AM 57.2 °F 57.2 °F 100% 30.33 in - NW 6.9 mph - N/A   Clear
4:00 AM 58 °F 57 °F 94% 30.33 in 12 mi NW 2.2 mph - -   Clear
4:00 AM 57.2 °F 57.2 °F 100% 30.33 in - NW 2.3 mph - N/A   Clear
4:30 AM 57.2 °F 55.4 °F 94% 30.30 in 3.1 mi WNW 4.6 mph - N/A   Partly Cloudy
5:00 AM 57 °F 56 °F 95% 30.32 in 12 mi WNW 3.5 mph - - Fog Light Fog
5:00 AM 57.2 °F 55.4 °F 94% 30.30 in 3.7 mi WNW 6.9 mph - N/A Fog Fog
5:30 AM 57.2 °F 55.4 °F 94% 30.30 in 3.7 mi WNW 5.8 mph - N/A Fog Fog
6:00 AM 56 °F 56 °F 98% 30.32 in 4 mi WNW 6.7 mph - - Fog Light Fog
6:00 AM 57.2 °F 55.4 °F 94% 30.30 in 4.3 mi WNW 5.8 mph - N/A Fog Fog
6:30 AM 57.2 °F 55.4 °F 94% 30.33 in 3.7 mi NW 5.8 mph - N/A Fog Fog
7:00 AM 59 °F 59 °F 98% 30.33 in 2 mi NNW 4.5 mph - -   Mist
7:00 AM 59.0 °F 59.0 °F 100% 30.30 in 1.9 mi NNW 3.5 mph - N/A   Mostly Cloudy
7:30 AM 60.8 °F 60.8 °F 100% 30.30 in 0.4 mi WNW 3.5 mph - N/A Fog Fog
8:00 AM 61 °F 61 °F 98% 30.33 in 2 mi NW 3.5 mph - - Rain Light Drizzle
8:00 AM 60.8 °F 60.8 °F 100% 30.33 in 2.2 mi NW 4.6 mph - N/A   Light Drizzle
8:30 AM 60.8 °F 60.8 °F 100% 30.33 in 3.1 mi NW 3.5 mph - N/A   Mostly Cloudy
9:00 AM 62 °F 61 °F 94% 30.33 in 4 mi NW 2.2 mph - -   Mist
9:00 AM 62.6 °F 60.8 °F 94% 30.30 in 3.7 mi NW 2.3 mph - N/A   Mostly Cloudy
9:30 AM 62.6 °F 60.8 °F 94% 30.30 in 3.1 mi WSW 5.8 mph - N/A   Overcast
10:00 AM 62 °F 60 °F 91% 30.33 in 3 mi SW 6.7 mph - -   Mist
10:00 AM 62.6 °F 60.8 °F 94% 30.33 in 3.1 mi SW 5.8 mph - N/A   Overcast
10:30 AM 64.4 °F 60.8 °F 88% 30.33 in 3.1 mi WSW 4.6 mph - N/A   Overcast
11:00 AM 64 °F 60 °F 84% 30.34 in 4 mi SSW 4.5 mph - -   Mist
11:00 AM 64.4 °F 60.8 °F 88% 30.33 in 4.3 mi SSW 3.5 mph - N/A   Overcast
11:30 AM 64.4 °F 60.8 °F 88% 30.33 in 5.6 mi SSW 5.8 mph - N/A   Mostly Cloudy
12:00 PM 65 °F 61 °F 81% 30.33 in 6 mi SSW 6.7 mph - -   Mist
12:00 PM 66.2 °F 60.8 °F 83% 30.33 in 5.6 mi SSW 6.9 mph - N/A   Mostly Cloudy
12:30 PM 66.2 °F 60.8 °F 83% 30.30 in 6.2 mi SSW 4.6 mph - N/A   Mostly Cloudy
1:00 PM 68 °F 63 °F 78% 30.32 in 9 mi SSW 8.9 mph - -   Mist
1:00 PM 68.0 °F 62.6 °F 83% 30.30 in 6.2 mi SSW 9.2 mph - N/A   Scattered Clouds
1:30 PM 69.8 °F 62.6 °F 78% 30.30 in 6.2 mi South 10.4 mph - N/A   Scattered Clouds
2:00 PM 69 °F 62 °F 72% 30.32 in 16 mi SSW 5.8 mph - -   Scattered Clouds
2:00 PM 69.8 °F 62.6 °F 78% 30.30 in 6.2 mi SSW 11.5 mph - N/A   Scattered Clouds
2:30 PM 68.0 °F 62.6 °F 83% 30.30 in 6.2 mi SSW 16.1 mph - N/A   Partly Cloudy
3:00 PM 69 °F 62 °F 71% 30.31 in 19 mi SW 13.4 mph - -   Scattered Clouds
3:00 PM 69.8 °F 62.6 °F 78% 30.30 in 6.2 mi SW 12.7 mph - N/A   Partly Cloudy
3:30 PM 68.0 °F 60.8 °F 78% 30.30 in 6.2 mi SW 12.7 mph - N/A   Partly Cloudy
4:00 PM 68 °F 61 °F 71% 30.31 in 19 mi SSW 15.7 mph - -   Scattered Clouds
4:00 PM 68.0 °F 60.8 °F 78% 30.30 in 6.2 mi SSW 15.0 mph - N/A   Partly Cloudy
4:30 PM 68.0 °F 60.8 °F 78% 30.30 in 6.2 mi SW 13.8 mph - N/A   Partly Cloudy
5:00 PM 69 °F 60 °F 67% 30.30 in 19 mi SW 6.9 mph - -   Scattered Clouds
5:00 PM 68.0 °F 60.8 °F 78% 30.27 in 6.2 mi SW 12.7 mph - N/A   Partly Cloudy
5:30 PM 68.0 °F 60.8 °F 78% 30.27 in 6.2 mi SW 12.7 mph - N/A   Partly Cloudy
6:00 PM 69 °F 59 °F 64% 30.29 in 19 mi West 13.4 mph - -   Scattered Clouds
6:00 PM 69.8 °F 59.0 °F 68% 30.27 in 6.2 mi West 12.7 mph - N/A   Partly Cloudy
6:30 PM 68.0 °F 59.0 °F 73% 30.27 in 6.2 mi West 11.5 mph - N/A   Partly Cloudy
7:00 PM 67 °F 57 °F 63% 30.30 in 19 mi West 13.4 mph - -   Scattered Clouds
7:00 PM 66.2 °F 57.2 °F 73% 30.27 in 6.2 mi West 12.7 mph - N/A   Partly Cloudy
7:30 PM 66.2 °F 57.2 °F 73% 30.30 in 6.2 mi West 12.7 mph - N/A   Scattered Clouds
8:00 PM 64 °F 56 °F 68% 30.31 in 19 mi West 6.9 mph - -   Mostly Cloudy
8:00 PM 64.4 °F 55.4 °F 73% 30.30 in 6.2 mi West 12.7 mph - N/A   Scattered Clouds
8:30 PM 60.8 °F 55.4 °F 82% 30.30 in 6.2 mi West 11.5 mph - N/A   Mostly Cloudy
9:00 PM 61 °F 55 °F 75% 30.31 in 19 mi West 8.9 mph - -   Mostly Cloudy
9:00 PM 60.8 °F 55.4 °F 82% 30.30 in 6.2 mi West 9.2 mph - N/A   Mostly Cloudy
9:30 PM 60.8 °F 55.4 °F 82% 30.30 in 6.2 mi West 10.4 mph - N/A   Mostly Cloudy
10:00 PM 60 °F 55 °F 77% 30.32 in 16 mi West 8.9 mph - -   Mostly Cloudy
10:00 PM 59.0 °F 55.4 °F 88% 30.30 in 6.2 mi West 10.4 mph - N/A   Mostly Cloudy
10:30 PM 59.0 °F 55.4 °F 88% 30.30 in 6.2 mi West 9.2 mph - N/A   Mostly Cloudy
11:00 PM 60 °F 56 °F 81% 30.32 in 16 mi West 8.9 mph - -   Mostly Cloudy
11:00 PM 60.8 °F 55.4 °F 82% 30.30 in 6.2 mi West 8.1 mph - N/A   Mostly Cloudy
11:30 PM 60.8 °F 55.4 °F 82% 30.30 in 6.2 mi West 4.6 mph - N/A   Mostly Cloudy